AUA679 LOWW-EPKK

Flight info

Callsign AUA679
Flight time 0h 41m
Altitude 29000
Route LEDVA DCT NETIR
Aircraft E195/M-SDE3GILORVW/S

Departure

Time 2026-04-30 11:12
Airport Vienna International Airport (LOWW)

Arrival

Time 2026-04-30 11:53
Airport Kraków John Paul II International Airport (EPKK)
Time Latitude Longitude Altitude Speed Heading
2026-04-30 10:24 48.11441 16.57068 609 ft 0 kts 206°
2026-04-30 11:06 48.11435 16.57064 607 ft 4 kts 206°
2026-04-30 11:06 48.11375 16.57054 613 ft 13 kts 165°
2026-04-30 11:06 48.11283 16.57070 618 ft 14 kts 147°
2026-04-30 11:06 48.11234 16.57200 615 ft 15 kts 117°
2026-04-30 11:07 48.11178 16.57370 617 ft 22 kts 115°
2026-04-30 11:07 48.11108 16.57586 613 ft 23 kts 116°
2026-04-30 11:07 48.11037 16.57774 607 ft 19 kts 137°
2026-04-30 11:07 48.10919 16.57852 612 ft 19 kts 163°
2026-04-30 11:08 48.10791 16.57901 611 ft 19 kts 165°
2026-04-30 11:08 48.10648 16.57962 612 ft 22 kts 164°
2026-04-30 11:08 48.10496 16.58026 607 ft 23 kts 164°
2026-04-30 11:08 48.10339 16.58092 611 ft 24 kts 164°
2026-04-30 11:09 48.10177 16.58161 620 ft 25 kts 164°
2026-04-30 11:09 48.10010 16.58232 610 ft 25 kts 165°
2026-04-30 11:09 48.09838 16.58304 615 ft 26 kts 164°
2026-04-30 11:09 48.09677 16.58374 611 ft 16 kts 158°
2026-04-30 11:10 48.09642 16.58509 607 ft 16 kts 63°
2026-04-30 11:10 48.09740 16.58570 616 ft 16 kts
2026-04-30 11:10 48.09861 16.58599 607 ft 18 kts
2026-04-30 11:10 48.09986 16.58628 611 ft 18 kts 18°
2026-04-30 11:11 48.10071 16.58624 609 ft 8 kts 343°
2026-04-30 11:11 48.10207 16.58566 612 ft 47 kts 344°
2026-04-30 11:11 48.10733 16.58344 610 ft 108 kts 344°
2026-04-30 11:11 48.11612 16.57970 738 ft 144 kts 344°
2026-04-30 11:12 48.12620 16.57575 1396 ft 154 kts 355°
2026-04-30 11:12 48.13715 16.57708 1908 ft 170 kts 22°
2026-04-30 11:12 48.14679 16.58901 2257 ft 194 kts 50°
2026-04-30 11:12 48.15611 16.60617 2512 ft 231 kts 48°
2026-04-30 11:13 48.16659 16.62500 3445 ft 232 kts 44°
2026-04-30 11:13 48.18023 16.63753 4222 ft 241 kts 17°
2026-04-30 11:13 48.19724 16.64078 4903 ft 250 kts
2026-04-30 11:13 48.21461 16.64185 5653 ft 253 kts
2026-04-30 11:14 48.23209 16.64552 6374 ft 254 kts 11°
2026-04-30 11:14 48.24953 16.65120 7053 ft 257 kts 13°
2026-04-30 11:14 48.26708 16.65699 7711 ft 259 kts 12°
2026-04-30 11:14 48.28488 16.66262 8312 ft 263 kts 11°
2026-04-30 11:15 48.30293 16.66810 8912 ft 267 kts 10°
2026-04-30 11:15 48.32123 16.67360 9594 ft 270 kts
2026-04-30 11:15 48.33980 16.67905 10191 ft 278 kts
2026-04-30 11:15 48.35940 16.68475 10522 ft 292 kts
2026-04-30 11:16 48.37967 16.69056 11019 ft 300 kts
2026-04-30 11:16 48.40016 16.69649 11662 ft 301 kts
2026-04-30 11:16 48.42083 16.70257 12298 ft 303 kts
2026-04-30 11:16 48.44163 16.70860 12912 ft 306 kts
2026-04-30 11:17 48.46261 16.71457 13568 ft 308 kts
2026-04-30 11:17 48.48375 16.72058 14191 ft 310 kts
2026-04-30 11:17 48.50501 16.72665 14773 ft 312 kts
2026-04-30 11:17 48.52642 16.73264 15341 ft 314 kts
2026-04-30 11:18 48.54800 16.73861 15907 ft 316 kts
2026-04-30 11:18 48.59149 16.75064 17046 ft 320 kts
2026-04-30 11:18 48.61346 16.75665 17648 ft 322 kts
2026-04-30 11:19 48.63565 16.76264 18237 ft 324 kts
2026-04-30 11:19 48.65790 16.76860 18813 ft 327 kts
2026-04-30 11:19 48.68016 16.77454 19327 ft 329 kts
2026-04-30 11:19 48.70278 16.78057 19839 ft 332 kts
2026-04-30 11:20 48.72528 16.78970 20326 ft 340 kts 21°
2026-04-30 11:20 48.74481 16.81052 20857 ft 351 kts 41°
2026-04-30 11:20 48.76059 16.83913 21340 ft 356 kts 46°
2026-04-30 11:20 48.77619 16.86851 21799 ft 360 kts 46°
2026-04-30 11:21 48.79193 16.89824 22266 ft 363 kts 46°
2026-04-30 11:21 48.80770 16.92820 22743 ft 365 kts 47°
2026-04-30 11:21 48.82356 16.95852 23224 ft 368 kts 47°
2026-04-30 11:21 48.83947 16.98908 23686 ft 371 kts 47°
2026-04-30 11:22 48.85552 17.01997 24128 ft 374 kts 47°
2026-04-30 11:22 48.87168 17.05111 24586 ft 375 kts 47°
2026-04-30 11:22 48.88790 17.08236 24998 ft 377 kts 47°
2026-04-30 11:22 48.90415 17.11374 25400 ft 379 kts 47°
2026-04-30 11:23 48.92047 17.14539 25798 ft 381 kts 47°
2026-04-30 11:23 48.93681 17.17713 26196 ft 382 kts 47°
2026-04-30 11:23 48.96975 17.24130 26931 ft 386 kts 47°
2026-04-30 11:24 48.98630 17.27368 27279 ft 388 kts 47°
2026-04-30 11:24 49.00289 17.30618 27683 ft 389 kts 47°
2026-04-30 11:24 49.01952 17.33877 28035 ft 390 kts 47°
2026-04-30 11:25 49.05288 17.40447 28647 ft 394 kts 47°
2026-04-30 11:25 49.06965 17.43765 28976 ft 395 kts 47°
2026-04-30 11:25 49.10320 17.50411 29542 ft 398 kts 47°
2026-04-30 11:26 49.13760 17.57274 29492 ft 416 kts 48°
2026-04-30 11:26 49.17319 17.64430 29432 ft 427 kts 48°
2026-04-30 11:27 49.20922 17.71683 29427 ft 427 kts 48°
2026-04-30 11:27 49.24510 17.78921 29428 ft 427 kts 48°
2026-04-30 11:28 49.29877 17.89782 29418 ft 425 kts 48°
2026-04-30 11:29 49.33440 17.97016 29433 ft 425 kts 48°
2026-04-30 11:29 49.38763 18.07853 29438 ft 423 kts 48°
2026-04-30 11:30 49.44057 18.18677 29432 ft 423 kts 48°
2026-04-30 11:31 49.47587 18.25919 29433 ft 423 kts 49°
2026-04-30 11:31 49.51077 18.33101 29434 ft 423 kts 49°
2026-04-30 11:32 49.54528 18.40429 29454 ft 427 kts 55°
2026-04-30 11:32 49.57072 18.48748 29405 ft 431 kts 62°
2026-04-30 11:33 49.60668 18.61340 29033 ft 415 kts 61°
2026-04-30 11:33 49.61818 18.65325 28627 ft 401 kts 60°
2026-04-30 11:33 49.62946 18.69232 28039 ft 395 kts 60°
2026-04-30 11:34 49.64051 18.73059 27527 ft 387 kts 60°
2026-04-30 11:34 49.65135 18.76816 27013 ft 380 kts 60°
2026-04-30 11:34 49.66200 18.80512 26504 ft 374 kts 60°
2026-04-30 11:34 49.67247 18.84146 26024 ft 368 kts 61°
2026-04-30 11:35 49.68283 18.87759 25541 ft 367 kts 60°
2026-04-30 11:35 49.69322 18.91360 25051 ft 367 kts 61°
2026-04-30 11:35 49.70358 18.94967 24554 ft 367 kts 61°
2026-04-30 11:35 49.71386 18.98566 24071 ft 366 kts 61°
2026-04-30 11:36 49.72410 19.02151 23571 ft 361 kts 61°
2026-04-30 11:36 49.73414 19.05674 23107 ft 356 kts 61°
2026-04-30 11:36 49.74413 19.09174 22620 ft 355 kts 61°
2026-04-30 11:36 49.75409 19.12655 22164 ft 353 kts 61°
2026-04-30 11:37 49.76399 19.16126 21692 ft 352 kts 61°
2026-04-30 11:37 49.77384 19.19585 21250 ft 350 kts 61°
2026-04-30 11:37 49.78363 19.23030 20753 ft 348 kts 61°
2026-04-30 11:37 49.79330 19.26445 20317 ft 345 kts 62°
2026-04-30 11:38 49.80292 19.29840 19841 ft 343 kts 61°
2026-04-30 11:38 49.81252 19.33216 19401 ft 341 kts 62°
2026-04-30 11:38 49.82201 19.36568 18936 ft 340 kts 62°
2026-04-30 11:38 49.83146 19.39905 18437 ft 337 kts 62°
2026-04-30 11:39 49.84075 19.43208 18061 ft 332 kts 62°
2026-04-30 11:39 49.85000 19.46486 17603 ft 331 kts 62°
2026-04-30 11:39 49.85921 19.49750 17175 ft 329 kts 62°
2026-04-30 11:39 49.86833 19.52992 16747 ft 327 kts 62°
2026-04-30 11:40 49.87738 19.56212 16290 ft 325 kts 62°
2026-04-30 11:40 49.88637 19.59410 15880 ft 322 kts 62°
2026-04-30 11:40 49.89529 19.62590 15437 ft 320 kts 62°
2026-04-30 11:40 49.90408 19.65743 15009 ft 317 kts 62°
2026-04-30 11:41 49.91280 19.68860 14615 ft 311 kts 62°
2026-04-30 11:41 49.92142 19.71926 14182 ft 308 kts 62°
2026-04-30 11:41 49.92985 19.74947 13776 ft 302 kts 63°
2026-04-30 11:41 49.93812 19.77903 13392 ft 296 kts 63°
2026-04-30 11:42 49.94625 19.80815 12965 ft 292 kts 63°
2026-04-30 11:42 49.95424 19.83681 12625 ft 287 kts 63°
2026-04-30 11:42 49.96208 19.86514 12228 ft 284 kts 63°
2026-04-30 11:42 49.96982 19.89308 11842 ft 281 kts 63°
2026-04-30 11:43 49.97753 19.92079 11481 ft 278 kts 63°
2026-04-30 11:43 49.98519 19.94824 11112 ft 276 kts 63°
2026-04-30 11:43 49.99278 19.97550 10745 ft 274 kts 63°
2026-04-30 11:43 50.00030 20.00248 10386 ft 273 kts 64°
2026-04-30 11:44 50.00775 20.02964 10007 ft 272 kts 64°
2026-04-30 11:44 50.01514 20.05655 9663 ft 270 kts 64°
2026-04-30 11:44 50.02251 20.08339 9298 ft 271 kts 64°
2026-04-30 11:44 50.02986 20.11042 8948 ft 271 kts 64°
2026-04-30 11:45 50.03572 20.13833 8563 ft 272 kts 73°
2026-04-30 11:45 50.03998 20.16667 8176 ft 262 kts 75°
2026-04-30 11:45 50.04368 20.19379 7817 ft 249 kts 75°
2026-04-30 11:45 50.04942 20.21808 7461 ft 236 kts 52°
2026-04-30 11:46 50.06141 20.23375 7209 ft 224 kts 21°
2026-04-30 11:46 50.07136 20.23742 7030 ft 221 kts
2026-04-30 11:46 50.08646 20.23401 6769 ft 221 kts 348°
2026-04-30 11:46 50.10146 20.22881 6465 ft 220 kts 348°
2026-04-30 11:47 50.12046 20.21907 6096 ft 219 kts 326°
2026-04-30 11:47 50.13039 20.20131 5819 ft 222 kts 296°
2026-04-30 11:47 50.13312 20.17758 5507 ft 227 kts 266°
2026-04-30 11:47 50.12994 20.15349 5186 ft 227 kts 258°
2026-04-30 11:48 50.12705 20.13714 4711 ft 235 kts 257°
2026-04-30 11:48 50.12291 20.11267 4305 ft 230 kts 259°
2026-04-30 11:48 50.11949 20.08867 3966 ft 224 kts 261°
2026-04-30 11:48 50.11640 20.06551 3650 ft 218 kts 261°
2026-04-30 11:49 50.11304 20.04222 3370 ft 219 kts 261°
2026-04-30 11:49 50.10995 20.01885 3132 ft 219 kts 261°
2026-04-30 11:49 50.10685 19.99592 3049 ft 210 kts 261°
2026-04-30 11:49 50.10384 19.97375 3209 ft 213 kts 261°
2026-04-30 11:50 50.10052 19.95064 3038 ft 218 kts 260°
2026-04-30 11:50 50.09741 19.92745 2581 ft 219 kts 261°
2026-04-30 11:50 50.09434 19.90523 2259 ft 202 kts 260°
2026-04-30 11:50 50.09147 19.88461 2000 ft 187 kts 262°
2026-04-30 11:51 50.08898 19.86584 1715 ft 166 kts 260°
2026-04-30 11:51 50.08663 19.84935 1495 ft 147 kts 259°
2026-04-30 11:51 50.08452 19.83446 1252 ft 134 kts 259°
2026-04-30 11:51 50.08263 19.82094 1067 ft 124 kts 259°
2026-04-30 11:52 50.08085 19.80790 901 ft 125 kts 260°
2026-04-30 11:52 50.07905 19.79475 804 ft 119 kts 260°
2026-04-30 11:52 50.07756 19.78350 790 ft 91 kts 258°
2026-04-30 11:52 50.07645 19.77557 790 ft 56 kts 258°
2026-04-30 11:53 50.07588 19.77110 795 ft 37 kts 254°
2026-04-30 11:53 50.07519 19.76852 796 ft 18 kts 217°
2026-04-30 11:53 50.07464 19.76855 793 ft 13 kts 167°
2026-04-30 11:53 50.07346 19.76896 789 ft 17 kts 167°
2026-04-30 11:54 50.07314 19.77005 789 ft 13 kts 77°
2026-04-30 11:54 50.07338 19.77176 789 ft 19 kts 78°
2026-04-30 11:54 50.07366 19.77377 789 ft 20 kts 77°
2026-04-30 11:54 50.07395 19.77590 789 ft 21 kts 78°
2026-04-30 11:55 50.07427 19.77812 789 ft 21 kts 78°
2026-04-30 11:55 50.07459 19.78043 789 ft 22 kts 77°
2026-04-30 11:55 50.07491 19.78281 789 ft 23 kts 77°
2026-04-30 11:55 50.07526 19.78526 789 ft 24 kts 78°
2026-04-30 11:56 50.07559 19.78769 789 ft 23 kts 77°
2026-04-30 11:56 50.07594 19.79017 789 ft 24 kts 77°
2026-04-30 11:56 50.07630 19.79256 789 ft 20 kts 79°
2026-04-30 11:56 50.07656 19.79462 789 ft 18 kts 78°
2026-04-30 11:57 50.07681 19.79642 789 ft 17 kts 77°
2026-04-30 11:57 50.07705 19.79825 789 ft 15 kts 89°
2026-04-30 11:57 50.07631 19.79894 789 ft 13 kts 167°
2026-04-30 11:57 50.07538 19.79925 789 ft 14 kts 166°
2026-04-30 11:58 50.07517 19.80019 789 ft 9 kts 79°
2026-04-30 11:58 50.07526 19.80120 789 ft 6 kts 101°
2026-04-30 11:58 50.07507 19.80133 789 ft 2 kts 161°
2026-04-30 11:58 50.07495 19.80137 789 ft 2 kts 167°
2026-04-30 11:59 50.07481 19.80142 789 ft 0 kts 167°